Wind_Speed
19 22 24 26 27 27 26 25 24 24 24 24 23 21 19 18 18 18 18 18 18 18 17 18 18 18 19 19 18 18 17 16 15 13 12 11 11 11 11 12 12 12 12 12 12 12 12 12 12 12 11 11 10 10 12 13 14 15 15 15 15 16 17 19 20 19 18 18 18 18 20 22 22 23 23 23 24 25 28 31 32 32 32 33 33
22 24 25 26 26 25 24 24 24 25 25 24 22 20 20 19 18 18 18 18 18 18 17 17 18 18 18 19 19 19 18 17 16 15 14 13 12 11 11 11 12 13 14 14 14 14 14 14 13 12 12 12 11 10 12 13 15 15 15 15 15 16 17 18 19 18 18 19 19 18 20 21 23 24 24 24 24 24 26 29 31 32 33 34 34
24 25 25 26 26 25 25 25 26 27 26 23 21 20 20 19 18 18 18 18 18 18 18 17 17 17 18 18 19 19 19 19 17 17 16 15 14 13 12 11 11 12 13 14 14 15 16 16 15 14 13 12 11 10 12 14 15 16 16 16 17 19 19 18 18 17 18 19 19 19 19 20 22 24 25 25 25 24 24 25 28 30 31 33 34
26 27 27 26 26 25 25 26 27 27 25 22 20 19 19 18 17 17 18 19 18 18 17 17 17 17 17 17 18 19 20 20 19 18 17 16 15 14 13 13 13 13 13 13 14 15 16 17 17 16 16 14 12 11 12 15 16 16 17 17 19 20 21 20 19 18 19 19 19 20 20 20 21 23 24 25 26 26 25 26 27 27 29 32 34
28 28 26 25 24 24 25 26 26 25 22 20 19 18 17 17 17 17 18 18 17 17 16 16 16 16 16 17 18 18 19 19 19 18 17 17 16 15 15 14 14 14 14 14 14 14 15 16 17 17 17 17 16 13 13 15 17 17 17 17 19 20 21 21 21 20 20 20 19 20 20 20 21 22 23 25 25 26 27 28 28 28 29 30 30
27 26 25 23 23 23 24 25 23 21 19 18 18 17 17 17 17 17 16 16 16 16 16 15 15 15 15 16 16 17 17 17 17 17 17 16 16 16 16 16 16 15 15 15 14 14 15 15 16 16 17 18 19 18 16 15 15 16 17 18 19 21 21 21 21 22 21 20 19 19 19 19 20 21 23 24 25 26 26 27 29 30 30 28 27
27 24 23 23 23 23 23 22 20 18 17 17 16 16 16 17 16 15 15 15 15 15 15 14 14 14 13 13 13 14 14 14 14 15 15 14 14 15 16 16 16 17 16 16 15 15 15 15 16 16 16 17 19 21 20 18 18 18 18 19 19 20 21 20 20 21 22 21 20 20 20 19 20 21 22 24 25 26 26 27 28 29 30 29 28
26 23 22 22 22 21 19 17 16 16 15 15 15 15 15 15 14 14 14 13 13 13 13 13 12 12 11 11 10 11 11 12 12 12 12 13 13 13 13 14 15 16 16 16 16 16 15 15 15 16 16 17 18 20 21 21 21 21 20 20 20 21 22 21 21 21 21 22 22 22 22 21 21 22 22 23 24 25 26 27 28 29 29 29 30
23 22 22 21 20 18 16 15 15 14 14 14 14 14 13 13 13 12 12 12 11 11 11 11 11 11 11 10 10 10 11 11 11 12 12 12 12 12 12 12 13 14 14 15 16 16 15 15 15 15 16 18 18 18 19 20 22 23 22 22 21 21 21 20 21 21 21 21 21 22 22 22 22 23 23 23 23 23 24 26 28 29 29 28 29
22 22 21 20 18 17 16 16 15 15 15 14 14 13 13 13 12 11 11 11 10 10 10 10 10 11 11 11 11 11 12 12 12 12 12 12 12 12 13 13 13 14 14 14 14 15 15 15 15 15 16 17 17 17 17 19 21 22 23 23 24 23 22 21 21 21 21 21 21 21 22 22 23 24 24 24 24 23 24 26 26 26 27 28 28
22 21 19 18 18 18 17 17 17 16 16 16 15 15 14 13 12 12 11 11 12 11 11 11 11 11 11 11 11 12 12 13 13 13 13 13 13 13 13 14 14 14 14 13 13 14 14 14 14 14 15 16 17 18 18 19 19 19 20 22 24 24 24 24 23 23 23 23 22 22 22 22 23 24 24 24 24 23 23 25 26 25 25 27 28
21 19 18 18 19 18 18 18 18 17 17 17 16 16 15 14 13 13 13 13 13 13 12 12 12 12 12 12 12 12 13 13 13 13 13 13 13 13 14 14 14 15 15 14 13 13 13 14 13 13 14 14 16 17 18 18 18 17 18 19 21 24 25 25 24 24 24 24 24 23 23 23 23 24 24 24 25 24 24 24 25 24 24 25 27
19 18 18 18 18 18 18 18 18 17 17 17 17 16 15 14 14 14 14 14 14 14 13 13 13 13 13 13 13 13 13 13 13 13 13 13 13 13 14 14 14 15 16 15 15 13 13 13 13 13 13 13 14 15 17 18 18 17 17 17 19 23 25 24 25 25 25 25 25 24 23 23 23 23 24 25 25 25 25 25 24 24 24 24 26
18 17 17 17 17 17 17 18 18 17 16 16 16 16 15 15 15 15 15 14 14 14 14 14 14 14 14 13 13 13 13 13 13 13 13 13 13 13 13 14 14 15 15 15 15 14 13 13 13 13 13 12 11 12 14 16 17 17 17 17 18 20 22 24 26 26 25 25 26 25 24 24 23 22 23 24 24 24 24 25 25 25 25 25 26
17 17 16 16 16 16 16 16 16 16 15 15 16 16 15 15 15 15 15 14 14 13 13 13 13 13 13 13 13 13 13 13 13 13 13 13 13 13 13 13 14 14 15 15 15 15 14 14 14 13 13 12 11 10 11 13 15 16 17 18 18 18 20 22 25 26 25 25 25 25 25 25 25 23 22 22 22 22 23 24 25 25 26 26 26
16 16 15 15 16 16 15 15 15 14 13 13 14 14 15 14 14 15 14 14 13 13 12 12 12 12 12 12 12 12 12 12 12 13 13 13 13 13 13 13 14 14 14 15 15 15 14 15 15 14 13 12 12 11 10 10 12 14 16 18 19 19 20 20 22 24 25 26 26 26 26 26 25 24 23 22 21 21 21 22 23 25 26 26 26
16 16 15 15 16 16 15 14 14 13 12 12 13 13 13 13 13 13 13 12 12 11 11 11 11 11 12 12 12 12 12 12 13 13 13 13 13 13 13 13 13 14 14 14 14 14 14 14 14 14 13 12 11 11 10 10 10 11 13 16 18 19 20 20 20 22 23 26 27 28 28 27 25 25 25 23 21 20 20 21 22 23 25 25 25
16 16 16 15 15 15 14 13 12 12 12 12 12 12 12 12 12 12 11 11 11 11 11 11 12 12 12 13 13 13 13 14 14 14 14 14 14 14 14 14 14 14 14 14 14 14 13 13 13 14 14 14 13 12 11 11 11 11 12 14 15 17 19 19 20 20 21 23 25 26 27 27 26 27 27 25 23 21 20 21 21 22 24 25 25
16 16 16 15 14 14 13 12 12 12 13 13 13 12 11 11 11 11 11 10 10 11 11 12 12 13 14 14 15 15 16 16 16 16 16 16 15 15 15 15 15 15 15 15 15 14 14 14 13 13 13 14 14 14 13 12 12 11 12 12 14 15 16 17 18 19 19 20 21 22 23 24 25 26 27 26 25 23 22 22 21 22 23 24 26
16 16 15 13 12 12 12 12 12 13 13 14 13 12 12 11 11 11 11 11 11 12 12 12 13 14 14 15 16 16 17 17 17 17 17 17 17 17 16 16 16 16 15 15 15 14 14 14 13 13 13 13 13 14 14 13 13 13 13 13 13 14 14 15 16 17 17 18 18 19 20 20 21 22 24 25 25 25 24 23 23 22 22 23 26
16 16 15 13 12 11 11 11 12 12 13 13 13 12 12 11 10 10 11 11 12 12 13 13 14 14 15 15 16 17 17 18 18 18 18 18 18 18 17 17 17 17 16 16 15 15 14 14 13 13 12 12 12 13 13 13 13 13 13 13 13 13 14 14 15 16 16 17 17 18 18 18 19 19 20 22 23 23 23 24 24 23 23 23 25
15 15 14 13 12 11 10 10 11 11 12 12 12 11 11 10 10 11 11 11 12 12 13 13 14 15 15 16 17 17 18 18 18 19 19 19 19 19 18 18 18 17 17 16 16 15 14 14 13 12 12 12 12 12 12 12 12 12 11 11 11 11 12 13 14 15 16 16 16 16 16 17 17 18 18 19 20 20 20 22 22 23 23 24 24
15 14 14 13 12 11 10 10 10 10 11 11 11 10 10 10 10 11 11 11 12 12 13 13 15 16 17 17 18 19 19 19 19 20 20 20 20 20 19 19 18 18 17 16 16 15 15 14 13 12 12 11 11 12 12 12 12 11 11 11 11 11 11 11 12 14 15 16 16 16 15 15 15 16 16 18 19 19 19 20 20 21 22 23 24
16 15 14 14 13 12 10 10 10 10 10 10 9 9 9 9 10 10 11 11 12 12 13 14 15 17 18 19 20 21 22 22 21 21 21 20 20 20 20 20 19 18 18 17 16 15 15 14 13 12 12 11 11 11 11 12 12 11 11 11 11 11 11 10 11 11 13 14 15 16 15 15 14 14 14 15 16 17 19 19 20 20 21 22 22
18 17 16 14 13 12 11 10 9 9 9 9 9 8 8 9 9 10 10 11 12 12 13 14 15 17 19 21 22 23 24 24 24 24 23 22 21 20 20 20 19 18 17 16 16 15 14 13 12 11 11 10 10 10 11 11 11 10 10 11 11 11 10 10 10 10 11 12 13 15 15 15 14 14 14 13 13 14 16 18 20 20 20 21 21
18 19 17 15 13 12 10 9 9 9 9 8 8 8 8 8 8 9 10 11 12 13 14 15 16 17 19 22 23 23 24 24 25 25 25 25 24 23 21 20 19 19 18 17 16 15 13 12 11 10 10 9 9 9 9 9 9 9 9 9 9 9 9 9 9 9 9 10 11 12 13 14 14 14 14 13 13 13 14 15 17 19 20 21 23
18 19 18 17 14 12 10 9 8 8 8 7 7 8 8 8 9 10 11 12 13 14 14 15 17 18 19 21 23 23 24 24 24 24 24 24 24 23 22 21 20 20 19 18 17 16 14 13 12 10 9 9 9 8 8 8 8 8 8 8 8 8 8 9 8 8 9 9 9 9 10 11 12 12 13 13 13 13 13 13 14 17 19 21 24
19 19 19 18 15 12 10 9 8 7 7 7 7 7 8 9 9 10 11 12 14 14 15 15 17 18 19 20 21 22 22 23 23 23 24 23 22 21 20 20 20 20 19 18 17 16 14 13 12 11 10 10 9 9 9 8 8 8 9 9 9 8 9 9 9 8 8 8 8 8 8 9 9 10 10 11 11 12 13 13 13 14 16 19 23
19 20 19 18 16 12 9 8 8 7 7 7 7 8 9 10 10 11 12 14 15 15 16 16 17 18 18 19 20 21 21 22 23 23 24 23 22 20 19 18 18 19 19 18 16 15 14 13 12 12 11 10 9 9 9 9 9 9 9 9 9 9 9 9 9 9 9 8 8 8 8 9 9 9 9 9 9 10 11 12 12 13 14 16 19
20 20 19 17 15 12 10 10 10 8 7 7 7 7 9 11 12 13 14 15 16 16 17 17 18 19 19 20 22 22 22 22 23 24 24 24 23 20 19 18 18 18 18 18 17 16 15 14 13 12 12 11 10 9 9 10 9 9 9 9 9 9 9 9 10 10 10 9 9 9 8 9 9 9 9 9 9 9 9 10 11 12 13 14 16
20 20 19 17 15 13 11 11 10 8 7 7 7 7 8 10 13 14 15 16 16 17 17 18 19 20 21 23 24 24 24 24 25 24 24 24 23 21 19 18 18 18 18 18 17 16 15 15 14 13 13 12 11 10 10 9 9 9 8 8 8 8 8 8 9 9 10 10 10 9 9 9 9 9 9 9 9 9 9 9 10 11 12 13 14
19 18 18 17 16 13 11 10 10 9 8 8 8 8 8 9 12 14 16 16 16 16 17 18 19 20 22 23 24 25 25 26 26 26 24 24 24 22 19 18 17 17 17 17 16 15 15 14 14 13 13 12 11 11 10 10 10 9 9 8 8 8 8 8 8 8 9 9 10 10 9 9 9 9 9 9 9 10 10 9 9 10 11 12 13
19 18 16 17 16 14 11 10 10 10 9 8 8 8 9 9 11 13 15 16 17 17 18 19 20 21 23 24 25 26 27 27 27 27 26 24 23 23 20 18 16 16 15 15 15 14 14 14 13 13 13 13 12 11 11 11 10 10 9 9 9 9 9 9 9 9 9 9 10 10 10 10 10 10 10 10 10 10 10 10 10 10 11 11 12
18 17 16 16 17 15 12 11 10 10 10 9 9 9 9 10 11 12 13 15 16 17 19 20 21 23 25 25 25 26 27 27 27 28 26 24 23 22 21 18 16 14 14 14 14 14 13 13 13 13 13 13 13 12 11 11 11 11 10 10 10 10 10 10 10 10 10 10 10 10 10 10 10 10 10 10 10 10 10 11 11 12 12 12 12
18 17 16 16 17 16 14 13 12 10 10 10 10 10 10 10 11 12 13 15 16 18 20 22 23 23 25 26 25 26 27 28 27 27 26 24 23 22 21 19 16 15 15 15 14 14 13 13 13 14 13 13 13 12 12 12 11 11 11 10 10 10 10 10 10 10 10 10 10 10 10 10 10 10 10 10 10 10 10 10 11 12 12 13 13
17 16 16 16 16 16 15 14 13 13 12 10 10 10 11 11 11 12 13 15 17 19 20 21 23 23 24 25 25 25 27 28 28 26 25 24 23 22 20 18 16 15 15 14 14 14 14 13 13 13 13 13 13 12 12 11 11 11 11 10 10 9 9 9 9 9 10 10 10 10 10 10 10 10 10 10 10 10 10 10 10 11 11 12 12
15 14 15 17 16 16 16 15 14 15 14 12 10 10 11 11 12 13 14 16 19 20 20 21 23 25 25 24 25 26 27 28 27 26 25 24 22 20 19 17 15 14 14 14 14 13 13 13 14 13 13 13 12 11 11 11 10 10 11 10 10 10 10 10 10 10 10 10 10 10 10 10 10 11 11 10 11 11 10 10 10 10 11 11 11
15 15 16 17 16 16 16 14 14 14 15 15 13 12 11 12 12 13 15 17 20 21 20 21 23 23 22 24 27 28 29 28 26 24 24 23 22 20 20 19 16 14 13 13 13 13 13 13 13 13 13 12 11 11 11 11 11 11 11 12 12 12 12 12 12 12 12 12 12 11 11 11 11 11 11 11 11 11 11 11 11 11 11 11 11
17 16 18 19 19 17 16 14 14 15 16 17 16 14 12 12 13 14 17 19 21 22 22 22 22 20 21 24 28 29 30 29 26 22 21 21 20 20 20 18 16 14 13 13 12 12 12 12 12 13 12 11 11 11 11 11 11 11 11 12 13 13 13 14 14 14 14 14 13 13 12 12 12 12 12 11 11 11 11 11 11 11 11 11 11
17 17 18 19 19 18 16 15 15 16 17 17 17 16 14 13 14 16 17 18 20 21 23 25 24 22 22 25 27 29 29 27 22 18 17 17 19 19 18 16 15 14 13 13 12 11 12 12 12 12 12 12 11 11 11 11 11 11 12 12 12 13 13 14 14 14 14 14 14 15 15 14 14 13 13 12 12 12 12 11 11 11 11 11 11
17 18 18 18 18 17 16 16 16 16 16 17 17 16 15 14 15 16 17 18 20 21 24 25 25 24 24 24 26 28 27 21 16 15 16 16 18 18 16 16 16 14 12 12 12 11 11 11 11 11 12 12 12 12 12 12 12 12 12 12 12 13 13 13 14 14 14 15 15 16 16 16 16 15 14 13 13 13 12 12 12 11 11 11 11
18 17 16 17 19 18 17 16 16 15 16 16 16 15 15 15 16 17 19 22 23 23 24 26 26 24 23 24 24 25 23 17 14 15 15 15 17 17 16 16 16 14 12 12 12 11 11 11 11 11 12 12 12 12 12 12 12 12 12 12 12 12 13 13 13 14 14 15 15 16 16 17 17 16 15 14 14 13 12 12 12 11 11 11 11
18 17 16 18 19 18 17 16 15 15 15 16 15 15 15 16 18 19 22 25 24 22 22 24 25 24 23 22 22 21 20 18 16 15 14 14 16 17 17 17 16 15 14 13 12 12 12 11 11 11 12 12 12 12 12 12 12 12 12 12 12 12 13 13 13 13 14 15 16 16 17 17 16 16 16 15 14 13 13 12 12 12 12 12 11
17 16 17 19 20 19 17 16 15 15 16 16 16 16 18 19 19 20 22 23 23 22 22 23 23 23 23 23 23 22 21 20 19 17 15 15 16 18 18 18 16 15 14 14 12 12 12 12 12 12 12 12 12 13 12 13 13 13 13 13 12 12 13 13 13 14 14 15 16 17 17 17 17 16 15 15 14 14 13 12 12 12 12 12 12
15 15 17 19 20 18 17 16 15 16 17 16 17 18 18 18 19 20 20 20 19 20 20 20 21 21 21 22 22 21 20 20 18 17 16 16 16 18 19 18 16 15 15 14 13 13 13 12 12 12 12 12 13 13 13 13 13 13 13 13 13 13 13 13 14 14 15 15 17 17 18 18 17 16 15 15 14 13 13 12 12 12 12 12 12
13 14 16 17 17 15 15 15 15 16 16 16 16 17 17 17 17 18 18 17 17 16 17 18 19 20 20 20 20 19 19 18 18 17 16 16 16 17 19 19 17 15 15 15 14 14 13 13 13 12 12 13 13 13 13 13 13 13 13 13 13 13 14 14 14 15 15 16 17 18 18 18 17 16 15 15 14 14 13 13 12 12 12 11 12
13 14 15 15 14 14 14 14 15 15 16 16 17 17 17 18 18 18 18 18 18 17 16 16 17 18 19 18 19 19 19 18 17 17 17 17 17 17 18 19 17 16 16 16 15 14 14 14 13 13 13 13 13 13 13 14 13 13 13 13 13 14 14 15 15 16 16 17 17 18 19 18 17 16 15 14 14 13 13 13 12 12 12 12 11
12 13 13 13 13 14 14 15 16 15 15 16 16 17 16 16 18 19 19 19 19 18 17 17 17 17 17 17 18 19 18 17 17 17 18 18 18 17 17 18 18 16 16 16 16 15 15 14 14 13 13 13 14 14 14 14 14 14 13 13 14 14 15 15 16 17 17 17 18 18 19 19 17 16 15 15 14 13 13 13 12 12 12 12 12
11 12 12 13 14 15 15 15 14 13 13 14 15 15 15 15 16 17 17 17 18 18 18 17 17 16 16 17 17 18 17 17 17 18 18 19 19 18 19 20 19 17 16 16 16 16 15 15 15 14 14 14 14 14 14 14 14 14 14 13 14 14 15 16 17 17 18 18 18 19 19 19 18 17 16 15 15 14 13 13 13 13 12 12 12
11 12 13 14 15 15 15 14 12 11 12 14 14 14 14 14 15 15 16 17 16 16 18 19 18 17 17 17 17 17 17 17 17 18 19 19 18 18 20 21 20 18 17 17 17 16 16 16 15 15 15 14 14 15 15 15 15 15 14 14 14 14 15 16 16 17 18 18 18 19 19 19 18 17 16 15 15 15 14 14 13 13 13 13 12
11 12 14 15 14 14 14 14 14 14 15 17 17 17 16 15 14 15 17 17 17 17 20 20 19 19 21 21 20 18 17 17 17 18 18 18 18 19 21 22 21 19 18 18 18 17 17 16 16 16 16 15 15 15 15 15 15 15 15 15 15 15 15 16 17 18 18 19 19 19 19 19 19 18 16 16 15 15 14 14 14 13 13 13 12
Wind_Direction
323 319 318 317 317 317 317 316 316 317 320 323 324 325 325 326 325 322 322 321 317 316 316 315 314 314 312 313 314 315 315 315 315 314 310 307 301 295 293 290 287 286 284 283 283 281 278 275 270 270 271 269 267 269 271 271 268 265 262 259 257 257 257 257 258 256 256 257 253 247 249 251 250 249 247 246 244 237 231 232 233 233 233 233 232
321 319 319 318 318 318 317 317 320 323 327 327 327 326 325 326 325 322 320 319 316 316 315 313 311 310 310 311 313 314 315 315 314 314 312 309 306 300 294 288 283 281 281 283 282 279 279 279 277 274 271 270 267 262 263 269 269 266 263 262 261 261 257 254 256 257 256 257 255 249 246 248 250 253 252 250 250 244 236 235 235 233 235 237 237
325 324 323 322 321 321 321 324 327 328 328 327 326 325 323 323 323 320 318 317 316 315 314 312 310 309 308 309 310 312 313 314 314 314 312 310 309 307 302 297 290 284 282 281 279 276 275 276 277 276 273 271 270 263 257 260 264 264 263 260 257 257 258 256 256 256 254 253 255 254 248 245 247 250 252 253 254 251 245 243 240 235 234 236 238
328 327 326 324 323 324 325 327 328 326 325 324 322 321 321 321 322 320 317 317 316 316 314 312 310 309 308 308 309 310 310 311 311 312 313 313 313 312 309 305 300 295 290 286 282 278 275 273 272 272 271 270 269 265 258 254 254 256 258 260 258 256 257 259 257 255 252 250 252 254 252 249 247 247 249 252 254 254 250 248 247 242 238 236 236
329 326 325 324 323 324 325 324 323 322 321 320 319 319 320 320 321 319 318 317 317 315 313 311 310 309 309 309 309 307 306 306 308 309 311 314 315 315 314 311 307 303 299 295 291 286 282 277 273 269 267 266 266 266 263 257 254 254 253 257 261 260 258 260 260 258 255 252 250 252 254 253 251 249 248 248 250 251 250 250 251 250 245 243 241
329 327 324 323 322 322 322 320 319 318 318 317 317 318 320 320 320 319 317 317 316 315 313 311 311 311 311 311 309 306 305 304 304 306 307 311 314 314 314 314 312 309 306 303 298 293 289 285 280 275 268 264 261 262 264 262 259 258 254 252 258 262 261 261 262 261 259 255 251 252 254 254 253 252 251 249 248 248 248 248 250 251 249 248 246
328 325 323 322 320 320 319 318 319 319 318 318 318 319 321 321 321 319 317 317 317 316 315 314 313 313 313 313 311 307 306 306 305 306 307 310 312 312 312 313 313 312 310 308 304 300 296 291 287 283 276 268 262 259 259 259 257 257 254 251 254 261 263 262 262 261 261 260 255 251 251 252 252 252 251 251 248 246 246 247 247 249 250 250 248
327 324 322 320 319 318 319 320 322 321 319 319 320 321 322 321 320 318 316 317 317 315 313 312 312 313 315 316 314 311 311 313 314 315 317 318 316 314 313 313 312 312 311 309 307 305 302 296 291 287 283 277 271 266 262 259 255 255 257 256 257 261 263 263 262 261 261 262 261 258 255 253 254 253 251 252 251 247 245 246 246 246 246 248 247
325 323 322 321 321 322 324 326 326 323 321 322 324 324 324 322 319 317 315 315 315 312 310 310 312 314 317 321 322 320 321 323 323 323 324 323 321 321 321 320 319 318 316 315 313 310 304 297 291 287 284 281 278 275 270 265 258 255 254 255 258 259 259 259 260 262 262 262 263 263 260 258 257 257 254 252 251 250 246 246 248 246 243 243 244
325 326 327 327 327 329 331 331 330 328 328 329 330 331 329 326 322 319 319 318 318 317 315 315 317 319 323 328 329 327 327 329 329 327 328 328 327 328 330 331 332 331 329 329 327 321 314 306 296 287 282 280 279 278 273 268 262 257 254 252 254 257 256 255 256 259 262 264 265 266 264 260 258 258 258 255 252 250 247 246 250 250 243 241 243
328 330 332 332 332 334 335 336 334 333 334 334 336 337 334 332 330 328 328 328 326 326 324 324 325 326 328 331 332 331 332 334 334 333 334 334 334 334 335 336 335 334 335 338 340 336 328 320 308 295 285 279 275 275 272 270 268 266 262 257 256 257 256 255 254 255 259 262 264 265 266 264 260 259 259 259 255 252 248 247 251 253 249 243 241
333 335 336 335 335 336 337 338 337 336 337 337 339 340 337 337 336 334 334 334 332 332 331 330 331 332 334 336 338 339 339 338 338 337 338 337 336 335 335 334 332 331 334 339 344 346 339 330 321 308 294 281 274 272 273 273 273 272 269 264 260 258 256 255 255 255 255 258 260 261 264 265 264 261 260 259 257 253 249 247 248 251 252 248 243
336 338 338 337 336 336 337 338 337 337 339 339 339 341 341 340 339 338 337 337 336 335 334 335 336 337 339 342 345 345 344 344 342 341 340 338 336 334 332 331 330 328 331 336 341 348 345 336 330 322 311 298 285 277 274 275 276 275 273 269 263 260 259 257 256 256 255 255 257 258 259 262 263 262 261 261 259 256 252 249 247 247 250 252 248
337 340 339 336 337 337 335 335 337 338 338 341 341 342 343 343 341 340 339 339 339 337 337 340 340 341 343 345 348 348 347 346 345 343 343 340 337 335 331 330 329 327 328 331 336 342 343 338 336 333 328 319 304 288 278 276 277 278 278 275 269 265 263 259 257 257 257 257 257 258 258 259 261 262 262 261 261 260 256 251 247 245 246 248 249
336 338 339 336 336 336 332 331 336 339 339 343 344 343 345 345 342 342 342 342 341 340 341 343 343 343 344 346 350 351 349 348 347 345 345 342 339 337 334 332 331 328 327 329 331 335 336 336 336 337 336 333 324 307 288 278 276 278 280 280 278 274 269 264 261 260 259 259 260 260 259 259 260 261 262 262 261 260 258 254 250 247 245 247 249
335 336 338 337 334 333 331 331 338 342 343 344 346 345 346 346 344 343 344 343 343 343 345 346 345 346 348 350 353 354 351 349 348 348 347 344 342 341 338 337 334 331 330 329 329 330 331 330 330 333 335 334 331 324 309 291 280 276 277 278 280 280 277 273 269 266 264 262 262 262 261 261 262 263 262 261 259 258 258 256 253 250 247 246 247
336 336 336 337 335 334 335 336 340 344 346 346 346 346 348 348 346 346 346 345 347 349 349 350 351 352 352 352 353 351 350 348 347 348 348 346 343 342 341 340 337 335 334 332 331 330 328 326 325 325 327 327 327 326 319 309 297 285 278 276 277 279 280 279 276 272 270 267 265 264 264 264 265 267 265 262 258 255 254 254 251 248 247 244 242
337 336 336 340 339 338 340 343 343 345 348 350 350 351 351 352 351 351 353 354 354 356 357 356 356 355 353 351 351 350 350 349 348 347 347 346 345 343 341 340 340 339 337 336 335 333 330 327 324 322 321 320 319 318 317 314 307 298 289 283 279 279 280 281 280 278 275 273 270 269 267 266 265 266 267 266 261 255 252 253 252 248 247 243 240
337 335 337 342 343 343 346 349 347 346 349 353 357 1 1 359 358 360 3 3 1 2 2 360 358 356 355 353 351 350 350 350 349 348 347 347 346 344 343 342 341 341 340 338 337 337 334 331 328 324 321 318 315 314 313 311 307 302 296 290 285 283 282 281 282 282 280 278 276 274 272 270 266 264 265 266 265 260 255 254 253 250 247 244 240
337 336 337 342 347 349 349 350 349 347 350 355 1 8 10 7 5 6 9 8 5 5 5 3 360 358 357 355 353 350 350 350 350 349 347 347 346 345 344 344 342 341 340 338 337 337 335 333 330 326 321 317 314 311 309 307 305 302 298 294 290 288 286 284 283 282 281 280 279 278 277 274 271 267 264 264 264 262 260 258 256 253 248 244 242
341 340 341 344 350 349 346 349 350 348 351 357 3 9 13 13 10 11 12 12 10 9 8 5 3 1 359 357 354 352 351 350 350 350 348 347 346 345 344 344 344 343 342 340 338 336 334 333 331 327 322 317 312 308 305 302 300 298 296 294 291 289 287 286 285 284 282 281 279 278 277 275 273 270 267 265 264 263 262 260 259 256 251 246 244
346 346 346 347 348 345 344 349 350 349 353 358 2 7 11 15 17 16 15 14 13 11 9 6 5 4 3 2 360 358 357 356 355 355 354 352 350 348 347 346 345 346 345 343 341 339 337 335 333 329 323 317 311 307 304 300 297 294 293 293 291 289 285 282 281 281 282 282 281 280 279 277 275 272 269 267 265 263 261 259 258 256 252 248 247
351 351 352 351 348 343 346 353 353 354 358 360 1 4 9 18 21 18 15 15 13 11 8 8 10 11 10 11 11 8 7 6 4 2 1 359 356 354 353 352 349 348 348 346 345 344 341 339 335 331 325 319 313 308 306 304 300 296 294 294 295 295 291 285 280 277 277 279 280 281 281 279 278 276 271 267 264 262 259 257 255 253 251 248 247
359 357 356 354 351 346 349 356 357 358 1 1 1 5 11 20 21 16 14 14 11 9 9 13 17 18 16 15 13 10 7 6 4 3 2 1 0 358 356 356 354 352 350 348 348 348 346 341 336 331 326 321 315 310 307 306 304 301 297 295 293 293 293 290 285 280 276 275 276 277 279 278 277 277 274 270 265 261 258 255 253 251 249 247 245
8 5 1 357 354 350 349 354 358 360 1 1 2 8 15 19 16 12 11 11 8 8 11 15 16 15 11 8 7 5 4 2 0 359 358 358 359 359 359 357 356 355 353 352 351 350 347 343 338 332 328 323 318 313 308 307 306 302 297 292 288 288 289 290 290 287 282 279 277 277 279 279 277 275 274 272 268 263 258 255 252 250 249 247 243
7 7 4 1 356 351 348 351 357 0 1 1 4 10 15 14 8 5 5 5 6 9 11 13 10 7 4 4 3 2 1 1 0 358 355 354 354 355 356 356 356 356 356 356 354 352 349 347 343 336 331 326 320 314 309 308 308 305 301 297 292 291 291 290 289 289 286 283 281 280 280 281 280 278 276 274 272 269 262 256 253 250 248 247 244
3 2 2 2 359 355 351 352 358 1 360 359 2 6 8 4 0 360 0 2 5 8 10 10 8 6 5 3 2 1 360 359 359 357 355 354 352 352 353 354 354 356 357 358 357 354 352 350 348 343 337 333 329 325 321 319 317 317 317 314 310 307 302 297 292 288 284 282 280 279 277 277 279 279 278 275 272 269 266 261 256 252 249 247 246
1 358 359 2 2 359 353 352 359 1 357 356 358 357 356 356 355 354 354 356 1 5 7 7 6 6 5 3 2 3 0 357 355 355 355 353 352 352 352 352 352 354 356 358 357 355 355 356 354 350 347 343 339 336 334 330 327 327 327 325 324 324 319 313 309 304 300 296 293 290 286 282 281 281 281 278 273 268 265 263 260 256 252 250 249
360 359 2 5 4 0 353 351 358 357 351 354 357 352 347 347 348 345 346 351 358 2 3 2 1 1 1 359 359 1 2 359 355 353 353 353 352 351 350 351 351 351 353 355 354 354 357 2 2 0 357 351 345 339 336 333 332 332 333 332 331 331 328 323 319 316 314 312 310 308 303 298 295 292 288 285 280 273 267 265 262 259 255 252 252
1 3 6 6 4 2 357 354 358 356 347 347 350 346 340 337 337 339 343 347 351 355 357 357 356 355 355 356 356 356 358 359 357 354 352 352 351 350 348 347 348 349 349 350 349 351 357 1 5 6 5 0 355 348 341 338 335 334 337 337 335 333 330 324 319 318 317 316 316 314 310 306 302 300 297 293 288 282 276 271 267 264 260 257 256
4 6 8 6 4 4 360 353 352 350 340 331 333 338 337 331 330 334 340 342 343 346 349 350 350 349 349 352 353 352 351 352 354 354 353 350 350 350 347 344 345 347 348 346 345 349 355 358 1 3 2 0 359 356 352 348 345 345 347 344 341 339 334 326 323 320 318 316 315 313 310 307 304 302 301 299 296 292 286 280 275 271 267 264 262
5 7 8 5 3 3 360 351 345 341 334 327 327 333 334 329 328 330 333 335 336 338 341 342 343 343 344 346 348 348 347 347 348 350 351 349 348 348 347 344 344 346 346 345 346 349 354 357 357 357 357 356 357 357 356 354 352 353 353 350 348 347 341 335 332 328 323 321 319 316 314 311 308 304 301 299 297 295 292 289 284 278 273 270 268
5 8 10 8 5 5 360 350 344 338 331 326 324 325 325 324 324 326 327 328 329 331 334 335 336 336 336 338 341 343 344 344 344 346 348 347 346 346 346 343 343 345 348 348 348 350 353 355 355 355 356 357 358 359 359 357 356 357 356 354 352 349 344 340 338 337 334 330 327 323 320 316 313 309 304 299 296 294 292 290 288 284 280 276 274
4 6 8 8 8 9 5 355 347 339 331 326 323 321 321 321 321 322 323 324 324 325 327 329 330 331 331 333 336 338 341 342 342 342 344 345 345 345 344 342 341 348 354 353 352 352 352 353 354 355 356 357 357 358 358 360 360 359 358 358 356 350 346 344 342 341 340 335 330 326 323 318 316 312 308 304 299 295 292 289 287 284 282 279 277
2 2 4 3 4 7 6 360 354 345 333 326 323 320 318 318 319 318 319 320 321 322 323 325 328 329 330 332 334 336 338 340 339 337 338 342 345 345 342 340 343 351 355 355 353 351 351 352 354 353 353 354 354 354 357 360 1 359 359 360 357 352 348 347 345 343 341 337 332 328 325 322 318 314 310 307 304 299 294 291 288 285 283 281 280
357 358 1 1 359 359 359 358 355 350 339 327 320 318 316 314 314 314 315 317 318 320 322 324 327 329 329 330 334 337 337 337 335 332 333 338 342 342 339 338 344 352 353 352 351 349 350 353 355 353 351 352 352 353 357 360 1 0 1 2 1 358 356 355 352 349 345 340 337 334 330 327 322 318 315 312 307 303 300 295 291 288 286 284 283
354 353 355 355 352 351 352 351 348 348 347 338 324 315 312 312 312 311 313 314 315 319 323 326 329 332 331 329 333 338 339 337 333 330 330 334 336 337 338 339 343 349 350 349 348 349 351 355 358 355 354 353 353 354 360 4 4 4 5 5 6 6 6 5 2 358 354 349 345 341 337 332 327 324 320 316 312 308 305 301 297 293 289 286 284
356 351 349 348 347 348 349 344 337 339 343 340 329 316 311 312 313 313 314 314 316 321 325 327 329 330 327 327 333 338 341 341 337 331 330 333 334 335 338 340 339 341 344 344 345 348 352 357 359 357 355 355 356 359 5 8 9 10 9 9 8 9 9 7 4 1 358 354 348 345 340 336 333 329 326 322 319 314 310 307 303 299 296 292 289
355 350 346 345 346 346 346 340 333 332 335 336 332 324 316 315 315 316 316 317 321 325 326 327 328 325 321 326 335 339 340 342 339 329 326 330 329 326 328 331 332 333 337 339 342 346 350 354 356 355 353 353 356 360 4 6 8 8 8 8 7 6 5 4 1 359 357 354 350 348 344 339 335 332 329 326 324 320 316 313 308 304 302 299 294
351 346 343 343 344 344 341 338 335 333 332 333 333 329 323 319 319 318 318 320 326 330 329 326 326 323 320 327 336 338 337 337 333 323 320 322 318 315 319 327 329 328 330 333 337 341 344 347 350 350 348 348 350 353 355 357 360 1 1 2 1 360 358 357 356 356 355 353 351 350 348 344 339 335 330 326 323 321 319 316 314 310 307 303 298
347 343 341 342 345 344 340 337 336 333 331 332 332 330 328 326 323 321 318 317 321 328 330 329 329 328 327 330 334 337 338 337 326 316 318 317 311 311 320 327 325 321 321 326 330 333 337 339 341 343 344 344 344 345 346 349 351 353 354 355 355 353 351 350 350 351 351 350 350 350 347 345 342 338 333 328 323 320 318 316 314 314 311 307 303
344 341 342 345 347 344 340 337 334 330 330 332 332 331 330 327 325 323 321 318 316 319 324 330 332 332 332 331 331 335 342 341 325 316 318 315 309 310 320 326 322 316 315 320 323 326 329 331 333 337 340 340 341 342 343 344 345 346 347 349 350 348 346 344 344 346 347 347 348 348 345 344 342 339 336 332 327 322 318 315 314 313 311 309 308
344 343 345 347 345 341 337 336 335 333 332 333 333 331 329 327 325 323 322 322 321 319 320 325 328 330 331 331 329 332 338 338 328 319 314 311 308 310 317 324 321 312 311 315 318 319 322 324 327 333 337 337 338 340 340 340 341 341 342 345 345 344 343 342 342 343 344 345 347 347 344 342 340 338 336 333 330 325 322 319 316 314 312 311 312
345 345 345 344 343 341 342 344 344 342 339 336 335 334 331 328 326 323 320 321 322 321 321 322 321 323 328 331 329 327 329 330 326 317 310 308 307 306 311 318 316 308 307 311 312 313 317 320 323 329 333 334 335 336 335 336 337 337 338 340 341 341 342 342 341 342 343 344 346 346 343 341 340 338 336 333 331 329 327 323 319 317 315 313 314
346 342 341 342 343 346 352 357 355 351 348 344 341 339 335 330 327 323 321 320 320 320 324 325 320 319 325 330 329 326 324 323 320 316 312 310 307 304 307 314 315 307 305 307 307 309 313 315 318 324 328 329 330 332 332 333 334 335 335 337 338 339 340 340 340 340 342 345 346 345 342 341 340 338 336 335 333 332 328 324 322 319 316 314 313
346 341 340 344 348 353 359 1 358 356 355 353 350 348 346 345 343 340 337 335 331 328 327 326 324 324 328 330 328 323 320 318 317 314 312 311 306 301 303 310 312 307 303 304 305 306 308 309 313 318 322 323 324 327 328 329 331 332 333 334 336 338 338 338 338 339 342 345 345 344 342 341 340 337 337 336 335 333 330 328 327 324 319 317 315
344 341 343 348 352 355 358 359 359 359 359 357 355 354 354 355 358 359 356 353 350 344 337 331 330 330 330 329 325 321 319 318 317 315 313 312 308 302 302 310 313 307 303 304 305 304 304 306 309 313 316 318 320 323 325 326 327 330 331 331 333 335 336 336 336 337 340 343 344 343 342 341 339 338 338 338 336 334 332 330 330 327 324 322 320
340 340 344 350 354 355 356 357 357 358 357 355 354 355 355 356 358 359 358 358 357 353 347 341 335 331 329 328 327 326 324 322 320 319 317 315 310 304 305 311 314 309 304 305 307 305 303 303 305 308 311 314 315 318 322 323 324 326 328 328 330 332 333 334 334 335 337 340 341 341 340 340 339 338 339 337 336 335 334 332 331 330 328 326 324
336 338 345 351 354 353 353 353 352 351 350 350 350 350 350 352 355 355 354 355 356 355 353 350 345 339 336 334 332 331 330 327 323 321 320 317 311 307 307 312 314 311 307 307 307 306 303 302 303 305 307 309 311 314 318 319 320 321 323 324 326 328 330 331 333 334 335 337 338 338 339 339 339 338 337 336 336 336 336 335 334 333 331 330 327
336 340 346 349 349 348 348 348 347 344 344 345 345 344 343 344 347 349 350 351 352 352 351 352 353 353 351 348 342 337 333 329 325 323 322 319 313 308 308 311 314 312 310 309 308 306 304 303 302 303 305 306 307 310 313 316 317 317 317 319 321 323 326 328 330 332 333 335 336 336 337 338 338 336 335 335 336 336 336 336 335 333 332 332 330
337 341 344 345 345 346 348 349 348 346 345 344 342 341 341 340 339 340 344 347 348 347 348 350 352 353 352 351 349 344 337 331 328 327 325 321 315 311 311 314 314 312 310 309 308 306 306 305 303 303 304 304 304 306 309 312 313 313 313 314 316 318 322 325 327 329 331 332 333 334 335 335 335 334 333 334 335 335 335 336 335 333 332 332 331
Height
3178 3176 3175 3173 3171 3169 3167 3166 3164 3162 3160 3158 3155 3154 3152 3151 3149 3147 3145 3144 3142 3141 3140 3138 3136 3135 3133 3132 3131 3130 3130 3129 3128 3127 3126 3126 3125 3124 3123 3122 3121 3121 3120 3119 3119 3118 3118 3117 3117 3117 3116 3116 3116 3117 3117 3116 3116 3116 3116 3116 3116 3116 3116 3116 3116 3117 3117 3117 3118 3119 3120 3120 3120 3120 3121 3122 3123 3124 3125 3126 3127 3129 3131 3133 3135
3176 3174 3173 3171 3169 3167 3165 3162 3160 3158 3156 3154 3152 3151 3149 3148 3147 3145 3143 3142 3140 3139 3138 3136 3135 3133 3132 3130 3129 3128 3127 3126 3126 3125 3124 3123 3122 3122 3121 3120 3120 3119 3118 3117 3116 3116 3115 3115 3114 3114 3114 3114 3114 3114 3114 3114 3114 3114 3114 3113 3113 3113 3113 3113 3114 3114 3115 3115 3115 3116 3117 3117 3118 3118 3118 3119 3121 3122 3123 3123 3124 3126 3128 3130 3133
3174 3172 3170 3167 3165 3163 3161 3158 3156 3154 3153 3151 3150 3149 3147 3146 3145 3143 3141 3140 3139 3137 3136 3134 3133 3131 3130 3129 3128 3126 3125 3124 3123 3122 3121 3120 3120 3119 3118 3118 3117 3117 3116 3115 3114 3114 3113 3112 3112 3112 3112 3111 3111 3112 3112 3111 3111 3111 3111 3111 3111 3110 3110 3110 3111 3112 3112 3113 3113 3113 3114 3114 3115 3115 3116 3117 3118 3120 3122 3122 3121 3122 3124 3127 3129
3170 3168 3166 3164 3162 3160 3158 3155 3154 3152 3151 3150 3148 3147 3145 3144 3143 3141 3139 3138 3136 3135 3134 3132 3131 3129 3128 3127 3126 3125 3123 3122 3121 3120 3119 3118 3117 3117 3116 3115 3115 3114 3113 3113 3112 3111 3111 3110 3110 3109 3109 3109 3109 3109 3109 3108 3108 3108 3108 3108 3108 3108 3107 3107 3108 3108 3109 3110 3111 3111 3111 3111 3112 3113 3113 3114 3114 3116 3118 3119 3118 3118 3120 3122 3124
3168 3166 3164 3162 3160 3158 3156 3154 3153 3151 3150 3148 3147 3145 3144 3142 3141 3139 3137 3135 3134 3133 3132 3130 3129 3127 3126 3125 3124 3123 3121 3120 3119 3118 3117 3116 3115 3114 3113 3113 3112 3111 3110 3110 3109 3109 3108 3108 3107 3107 3107 3106 3106 3106 3106 3105 3105 3105 3105 3105 3105 3105 3104 3105 3105 3105 3106 3107 3108 3108 3108 3108 3109 3109 3110 3111 3111 3112 3113 3115 3115 3116 3117 3119 3121
3166 3164 3162 3160 3158 3156 3155 3153 3151 3150 3148 3146 3145 3143 3142 3140 3139 3137 3135 3134 3132 3131 3129 3128 3127 3125 3124 3123 3122 3121 3119 3119 3117 3116 3115 3114 3113 3112 3111 3110 3109 3108 3107 3107 3106 3106 3105 3105 3104 3104 3104 3104 3103 3103 3102 3102 3102 3102 3102 3102 3102 3101 3101 3102 3102 3102 3102 3103 3104 3105 3105 3106 3106 3106 3107 3107 3108 3109 3110 3111 3111 3112 3114 3117 3119
3164 3162 3160 3158 3156 3154 3152 3151 3149 3148 3146 3144 3143 3141 3140 3138 3137 3135 3134 3132 3131 3129 3128 3126 3125 3124 3123 3122 3121 3119 3118 3117 3116 3114 3113 3112 3111 3110 3109 3107 3106 3105 3105 3104 3103 3103 3102 3102 3101 3101 3101 3101 3100 3099 3099 3099 3098 3098 3098 3098 3099 3099 3099 3099 3099 3099 3099 3100 3101 3102 3102 3103 3103 3103 3103 3104 3105 3106 3107 3108 3108 3109 3111 3113 3115
3161 3159 3157 3155 3153 3152 3150 3149 3147 3146 3144 3143 3141 3140 3138 3137 3135 3134 3132 3131 3130 3128 3127 3126 3124 3123 3122 3121 3120 3118 3117 3116 3114 3113 3112 3111 3109 3108 3107 3106 3105 3103 3102 3101 3100 3100 3100 3099 3098 3098 3098 3097 3097 3096 3096 3096 3096 3095 3095 3095 3096 3096 3096 3096 3096 3097 3097 3098 3098 3099 3100 3100 3100 3100 3100 3101 3101 3102 3103 3104 3105 3105 3107 3109 3111
3158 3157 3154 3152 3150 3149 3147 3146 3145 3144 3142 3141 3139 3138 3137 3135 3134 3133 3131 3130 3129 3127 3126 3125 3123 3122 3121 3120 3118 3117 3116 3114 3113 3112 3111 3109 3108 3106 3105 3104 3103 3102 3100 3099 3098 3097 3097 3096 3095 3095 3094 3093 3093 3093 3093 3093 3093 3093 3093 3093 3093 3093 3093 3093 3094 3094 3094 3095 3095 3096 3097 3097 3097 3097 3098 3098 3098 3099 3100 3101 3101 3101 3103 3105 3107
3156 3154 3151 3149 3147 3145 3144 3143 3142 3141 3139 3138 3136 3135 3134 3133 3132 3130 3129 3128 3127 3126 3125 3123 3122 3120 3119 3118 3116 3115 3114 3113 3112 3111 3109 3108 3106 3105 3103 3102 3101 3100 3099 3098 3097 3095 3094 3093 3092 3092 3091 3090 3089 3090 3090 3089 3089 3089 3090 3090 3090 3090 3090 3091 3091 3091 3091 3092 3093 3093 3093 3094 3094 3094 3094 3095 3095 3096 3097 3097 3097 3098 3100 3102 3104
3153 3151 3148 3146 3144 3143 3141 3140 3138 3137 3136 3135 3133 3132 3131 3130 3129 3128 3127 3126 3125 3123 3122 3121 3119 3118 3116 3115 3114 3113 3112 3111 3110 3109 3108 3106 3105 3103 3102 3101 3099 3098 3097 3097 3095 3094 3092 3091 3089 3088 3088 3087 3087 3086 3086 3086 3086 3086 3087 3087 3087 3087 3087 3088 3088 3088 3089 3089 3089 3090 3090 3091 3091 3091 3091 3091 3092 3093 3093 3094 3094 3095 3097 3099 3100
3150 3148 3146 3144 3142 3140 3139 3137 3136 3134 3133 3132 3131 3130 3129 3128 3126 3125 3124 3123 3122 3121 3119 3118 3117 3115 3114 3113 3112 3111 3109 3109 3108 3107 3106 3104 3103 3102 3100 3099 3098 3096 3095 3095 3094 3093 3091 3089 3087 3086 3085 3084 3084 3083 3083 3083 3083 3083 3083 3084 3084 3083 3083 3084 3085 3085 3085 3085 3086 3086 3087 3087 3088 3088 3088 3088 3088 3089 3090 3090 3091 3092 3094 3095 3096
3148 3146 3144 3142 3140 3139 3137 3136 3134 3133 3131 3130 3129 3128 3127 3126 3125 3123 3122 3121 3119 3118 3117 3116 3114 3113 3112 3111 3110 3108 3107 3107 3106 3105 3104 3103 3101 3100 3099 3097 3096 3095 3094 3093 3092 3091 3090 3088 3086 3084 3083 3082 3082 3081 3081 3080 3080 3080 3080 3081 3081 3080 3080 3081 3081 3081 3082 3082 3082 3083 3083 3084 3084 3084 3084 3084 3085 3085 3086 3087 3088 3089 3090 3091 3092
3146 3144 3143 3141 3139 3138 3136 3134 3133 3131 3130 3129 3127 3126 3125 3124 3123 3121 3120 3119 3118 3116 3115 3114 3112 3111 3110 3109 3108 3107 3106 3105 3104 3103 3102 3101 3100 3099 3097 3096 3095 3093 3092 3091 3090 3089 3088 3087 3085 3083 3082 3081 3080 3079 3079 3078 3078 3078 3078 3078 3078 3077 3077 3077 3077 3077 3078 3079 3079 3079 3080 3080 3081 3081 3081 3081 3082 3082 3083 3084 3085 3086 3086 3087 3088
3144 3143 3142 3140 3138 3137 3135 3133 3131 3130 3129 3127 3126 3125 3124 3123 3121 3120 3119 3117 3116 3115 3113 3112 3111 3110 3109 3108 3107 3106 3105 3104 3103 3102 3100 3099 3098 3097 3096 3094 3093 3092 3090 3089 3088 3087 3086 3085 3084 3082 3081 3079 3078 3078 3077 3077 3076 3076 3075 3075 3075 3075 3074 3074 3074 3074 3075 3075 3075 3076 3076 3076 3077 3078 3078 3078 3078 3079 3080 3080 3081 3082 3083 3084 3085
3143 3142 3140 3138 3137 3135 3134 3132 3131 3129 3128 3127 3125 3124 3123 3122 3120 3119 3118 3116 3115 3114 3112 3111 3110 3109 3108 3107 3106 3105 3104 3103 3102 3100 3099 3098 3097 3096 3094 3093 3092 3090 3089 3088 3086 3086 3085 3083 3082 3081 3080 3078 3077 3076 3075 3075 3074 3074 3073 3072 3072 3071 3071 3071 3071 3071 3071 3071 3072 3072 3072 3073 3074 3074 3074 3075 3076 3076 3077 3077 3078 3079 3080 3081 3082
3142 3140 3139 3137 3135 3134 3133 3131 3130 3128 3127 3126 3125 3124 3122 3121 3120 3118 3117 3116 3114 3113 3112 3111 3110 3108 3107 3106 3105 3104 3103 3102 3101 3099 3098 3097 3096 3094 3093 3092 3090 3089 3087 3086 3085 3084 3083 3082 3080 3079 3078 3077 3076 3075 3074 3073 3072 3072 3071 3070 3070 3069 3068 3068 3068 3068 3068 3067 3068 3068 3068 3069 3070 3070 3070 3072 3072 3073 3073 3074 3075 3076 3076 3078 3079
3140 3138 3137 3136 3134 3133 3132 3131 3129 3128 3127 3126 3125 3123 3122 3121 3119 3118 3117 3116 3114 3113 3111 3110 3109 3108 3106 3105 3104 3103 3102 3101 3099 3098 3097 3096 3094 3093 3092 3090 3089 3088 3086 3085 3083 3082 3081 3080 3079 3078 3076 3075 3074 3073 3072 3071 3070 3070 3069 3068 3067 3066 3066 3065 3065 3065 3065 3064 3064 3064 3064 3065 3066 3067 3067 3068 3069 3070 3070 3070 3071 3072 3073 3074 3075
3138 3137 3136 3135 3133 3132 3130 3130 3128 3127 3126 3125 3124 3123 3122 3120 3119 3118 3117 3115 3114 3112 3111 3110 3109 3107 3106 3104 3103 3101 3100 3099 3098 3097 3095 3094 3093 3091 3090 3089 3087 3086 3085 3083 3082 3081 3079 3078 3077 3076 3075 3073 3072 3071 3070 3070 3069 3068 3067 3066 3065 3064 3064 3063 3062 3062 3062 3061 3061 3061 3061 3061 3062 3063 3063 3064 3065 3066 3067 3067 3068 3068 3069 3070 3071
3137 3136 3134 3133 3132 3131 3130 3129 3128 3126 3125 3124 3123 3122 3121 3120 3119 3117 3116 3115 3113 3112 3111 3110 3108 3107 3105 3104 3102 3100 3099 3098 3097 3095 3094 3092 3091 3090 3089 3087 3086 3085 3083 3082 3081 3079 3078 3076 3075 3074 3073 3072 3071 3069 3068 3067 3067 3066 3065 3064 3063 3062 3062 3061 3060 3060 3059 3059 3058 3058 3058 3058 3059 3059 3060 3060 3061 3062 3063 3064 3064 3065 3066 3067 3067
3136 3135 3133 3132 3131 3130 3129 3128 3127 3126 3125 3124 3123 3122 3121 3120 3118 3117 3116 3114 3113 3112 3111 3109 3108 3106 3105 3103 3102 3100 3098 3097 3095 3094 3092 3091 3089 3088 3087 3085 3084 3083 3081 3080 3079 3077 3076 3075 3073 3072 3071 3070 3069 3068 3067 3066 3065 3064 3063 3062 3061 3060 3060 3059 3058 3058 3057 3056 3056 3056 3055 3056 3056 3056 3056 3057 3057 3058 3059 3060 3061 3062 3062 3063 3064
3136 3134 3132 3131 3130 3129 3128 3127 3126 3125 3124 3123 3122 3122 3121 3120 3118 3117 3116 3114 3113 3112 3110 3109 3108 3106 3104 3103 3101 3100 3098 3096 3094 3093 3091 3090 3088 3086 3085 3084 3082 3081 3080 3078 3077 3076 3074 3073 3072 3071 3069 3068 3067 3066 3065 3064 3063 3062 3061 3060 3059 3058 3058 3057 3056 3056 3055 3054 3054 3053 3053 3053 3053 3053 3053 3053 3054 3055 3055 3056 3057 3058 3058 3059 3060
3135 3133 3131 3130 3129 3128 3127 3127 3126 3125 3124 3123 3122 3121 3120 3119 3118 3117 3115 3114 3113 3111 3110 3109 3107 3105 3104 3102 3101 3099 3097 3096 3094 3092 3090 3089 3087 3085 3083 3082 3081 3079 3078 3076 3075 3074 3073 3071 3070 3069 3068 3067 3065 3064 3063 3062 3061 3060 3059 3058 3057 3056 3056 3055 3054 3054 3053 3052 3052 3051 3051 3051 3051 3051 3051 3051 3051 3051 3052 3052 3053 3054 3055 3056 3057
3134 3132 3131 3129 3128 3127 3127 3126 3125 3125 3124 3123 3122 3121 3120 3119 3118 3116 3115 3114 3113 3111 3110 3109 3107 3105 3104 3102 3101 3099 3097 3095 3093 3092 3090 3088 3086 3084 3082 3081 3079 3078 3076 3075 3074 3072 3071 3070 3069 3067 3066 3065 3064 3063 3061 3060 3059 3058 3057 3056 3055 3054 3054 3053 3053 3052 3051 3051 3050 3049 3049 3049 3049 3048 3048 3048 3048 3048 3049 3049 3049 3050 3051 3052 3054
3133 3132 3130 3129 3128 3126 3126 3125 3125 3124 3123 3122 3121 3120 3119 3118 3117 3116 3115 3114 3113 3111 3110 3108 3107 3105 3104 3102 3100 3099 3097 3094 3092 3090 3089 3087 3086 3084 3082 3080 3078 3077 3075 3074 3072 3071 3070 3068 3067 3066 3065 3063 3062 3061 3060 3059 3058 3057 3056 3055 3054 3053 3052 3051 3051 3050 3049 3049 3048 3048 3047 3047 3046 3046 3046 3046 3046 3046 3046 3046 3046 3047 3047 3048 3050
3134 3132 3130 3128 3127 3126 3125 3124 3124 3123 3122 3122 3121 3120 3119 3118 3117 3116 3115 3114 3113 3111 3110 3109 3107 3105 3104 3102 3100 3098 3096 3094 3092 3090 3088 3086 3084 3082 3080 3079 3077 3076 3074 3073 3071 3070 3068 3067 3066 3064 3063 3062 3061 3060 3058 3057 3056 3055 3054 3053 3052 3051 3051 3050 3049 3048 3048 3047 3047 3046 3045 3045 3044 3044 3044 3044 3044 3044 3043 3043 3044 3044 3044 3045 3046
3134 3132 3130 3128 3126 3125 3124 3123 3123 3122 3122 3121 3120 3120 3119 3118 3117 3116 3115 3114 3113 3111 3110 3109 3107 3106 3104 3102 3100 3098 3096 3094 3092 3090 3088 3086 3084 3081 3079 3078 3076 3075 3073 3071 3070 3068 3067 3066 3064 3063 3062 3060 3059 3058 3057 3056 3055 3054 3053 3052 3051 3050 3049 3048 3048 3047 3046 3046 3045 3045 3044 3043 3043 3042 3042 3042 3042 3041 3041 3041 3041 3041 3042 3042 3042
3133 3131 3129 3127 3126 3124 3123 3123 3122 3122 3121 3120 3120 3119 3119 3118 3117 3117 3116 3114 3113 3112 3110 3109 3107 3105 3104 3102 3100 3098 3096 3094 3092 3090 3088 3086 3084 3082 3079 3077 3075 3074 3072 3071 3069 3068 3066 3065 3063 3062 3060 3059 3058 3057 3056 3055 3054 3053 3051 3051 3050 3049 3048 3047 3046 3045 3045 3044 3044 3043 3042 3042 3041 3041 3040 3040 3040 3039 3039 3039 3039 3039 3039 3039 3039
3133 3131 3129 3127 3126 3124 3123 3122 3121 3121 3121 3120 3120 3120 3119 3118 3118 3117 3115 3114 3113 3111 3110 3108 3107 3105 3104 3102 3100 3098 3097 3094 3092 3090 3087 3085 3083 3081 3079 3077 3075 3073 3072 3070 3069 3067 3065 3064 3062 3061 3060 3059 3057 3056 3055 3054 3053 3052 3051 3050 3049 3048 3047 3046 3045 3044 3043 3043 3042 3041 3041 3040 3040 3039 3039 3038 3038 3038 3037 3037 3037 3037 3037 3037 3037
3132 3130 3128 3127 3126 3125 3123 3122 3121 3121 3121 3120 3121 3120 3119 3118 3117 3116 3115 3113 3112 3111 3109 3108 3106 3104 3103 3101 3099 3097 3096 3094 3092 3089 3087 3084 3082 3080 3078 3076 3074 3073 3071 3069 3068 3066 3065 3063 3062 3060 3059 3058 3057 3055 3054 3053 3052 3051 3050 3049 3048 3047 3046 3045 3043 3043 3042 3041 3041 3040 3039 3039 3038 3038 3037 3037 3036 3036 3035 3035 3035 3035 3035 3035 3035
3132 3130 3129 3127 3126 3125 3124 3123 3122 3121 3121 3121 3120 3120 3119 3117 3116 3115 3114 3113 3111 3110 3108 3107 3105 3104 3102 3100 3098 3097 3095 3093 3091 3089 3086 3084 3081 3079 3077 3076 3074 3072 3070 3068 3067 3065 3064 3062 3061 3060 3058 3057 3056 3055 3054 3053 3052 3051 3049 3048 3047 3046 3045 3044 3043 3042 3041 3040 3039 3039 3038 3038 3037 3036 3036 3035 3035 3034 3034 3033 3033 3033 3033 3032 3032
3132 3131 3129 3128 3126 3125 3124 3123 3122 3121 3121 3120 3120 3119 3118 3117 3116 3114 3113 3112 3110 3109 3107 3106 3104 3103 3101 3100 3098 3096 3094 3092 3090 3087 3085 3083 3080 3078 3076 3075 3073 3071 3069 3067 3066 3064 3063 3061 3060 3059 3058 3057 3055 3054 3053 3052 3051 3050 3049 3048 3046 3045 3044 3043 3042 3041 3040 3039 3038 3038 3037 3036 3036 3035 3034 3034 3033 3033 3032 3032 3031 3031 3031 3030 3030
3132 3130 3129 3128 3126 3124 3123 3123 3121 3121 3120 3120 3119 3119 3118 3117 3116 3114 3112 3111 3109 3108 3107 3105 3103 3102 3100 3099 3097 3095 3093 3091 3088 3086 3084 3082 3079 3077 3075 3074 3072 3070 3068 3067 3065 3063 3062 3061 3059 3058 3057 3056 3055 3053 3052 3051 3050 3049 3048 3047 3046 3045 3043 3042 3041 3040 3039 3038 3037 3036 3035 3035 3034 3033 3033 3032 3032 3031 3031 3030 3030 3029 3029 3028 3028
3131 3130 3129 3127 3126 3125 3124 3123 3121 3120 3120 3119 3118 3118 3117 3116 3115 3114 3112 3110 3109 3107 3105 3104 3103 3101 3099 3097 3096 3094 3092 3089 3087 3085 3083 3081 3079 3076 3074 3073 3071 3069 3067 3066 3064 3063 3061 3060 3059 3057 3056 3055 3054 3053 3052 3051 3049 3048 3047 3046 3045 3044 3043 3042 3040 3039 3038 3037 3036 3035 3034 3033 3032 3032 3031 3031 3030 3030 3029 3028 3028 3027 3027 3026 3026
3132 3130 3129 3127 3126 3125 3124 3123 3121 3120 3119 3118 3118 3117 3116 3115 3114 3113 3111 3110 3108 3106 3104 3103 3101 3100 3098 3096 3094 3092 3090 3088 3086 3084 3082 3080 3078 3076 3073 3072 3070 3068 3066 3065 3064 3062 3061 3059 3058 3057 3056 3054 3053 3052 3051 3050 3049 3047 3046 3045 3044 3043 3042 3041 3040 3038 3037 3036 3035 3034 3033 3032 3031 3030 3029 3029 3028 3028 3027 3027 3026 3025 3025 3024 3024
3132 3130 3129 3128 3126 3125 3124 3123 3121 3120 3119 3118 3117 3116 3115 3114 3113 3112 3110 3109 3107 3105 3104 3102 3100 3099 3097 3095 3093 3091 3089 3086 3084 3082 3080 3078 3077 3075 3073 3071 3069 3067 3065 3064 3063 3061 3060 3059 3057 3056 3055 3054 3053 3052 3050 3049 3048 3047 3046 3045 3044 3043 3041 3040 3039 3038 3037 3035 3034 3033 3032 3031 3030 3029 3028 3027 3026 3026 3025 3024 3024 3023 3023 3022 3022
3133 3131 3129 3128 3127 3125 3124 3122 3120 3119 3118 3117 3116 3114 3114 3113 3112 3111 3109 3107 3106 3104 3103 3101 3099 3097 3094 3093 3091 3089 3087 3085 3083 3080 3078 3077 3075 3073 3071 3070 3068 3066 3065 3063 3062 3061 3060 3058 3057 3056 3054 3053 3052 3051 3050 3049 3047 3046 3045 3044 3043 3042 3041 3039 3038 3037 3036 3035 3033 3032 3031 3030 3029 3028 3027 3026 3025 3024 3023 3022 3022 3021 3021 3020 3019
3133 3131 3130 3128 3127 3125 3124 3122 3120 3119 3117 3116 3115 3114 3112 3111 3111 3109 3108 3106 3104 3103 3101 3100 3098 3096 3094 3091 3089 3087 3085 3083 3081 3078 3076 3075 3073 3071 3069 3068 3067 3065 3064 3063 3061 3060 3059 3058 3056 3055 3054 3053 3052 3051 3049 3048 3047 3046 3045 3043 3042 3041 3040 3038 3037 3036 3035 3034 3033 3031 3030 3029 3028 3027 3025 3024 3023 3022 3021 3020 3020 3019 3018 3018 3017
3132 3130 3129 3127 3126 3124 3123 3121 3119 3118 3117 3116 3114 3113 3111 3110 3109 3108 3106 3105 3103 3101 3100 3098 3097 3095 3093 3090 3087 3085 3084 3081 3079 3077 3075 3074 3072 3070 3069 3067 3066 3064 3063 3062 3061 3059 3058 3057 3056 3055 3054 3053 3052 3050 3049 3048 3047 3046 3044 3043 3042 3040 3039 3038 3037 3035 3034 3033 3032 3030 3029 3028 3026 3025 3024 3023 3022 3021 3020 3019 3018 3017 3016 3015 3015
3132 3130 3128 3127 3125 3123 3121 3120 3118 3117 3116 3114 3113 3112 3110 3109 3108 3107 3105 3103 3101 3100 3098 3096 3095 3093 3090 3088 3086 3084 3083 3081 3078 3076 3075 3074 3072 3070 3068 3066 3065 3063 3062 3061 3060 3059 3058 3057 3055 3054 3053 3052 3051 3050 3049 3047 3046 3045 3044 3042 3041 3040 3038 3037 3036 3035 3033 3032 3031 3029 3028 3026 3025 3023 3022 3021 3020 3019 3018 3017 3016 3015 3014 3013 3012
3132 3130 3128 3126 3125 3123 3121 3119 3118 3116 3114 3113 3112 3110 3109 3108 3107 3105 3103 3101 3099 3098 3096 3095 3093 3091 3088 3086 3084 3082 3080 3079 3077 3075 3074 3073 3071 3068 3066 3065 3063 3062 3061 3060 3059 3058 3057 3056 3055 3053 3052 3051 3050 3049 3048 3047 3045 3044 3043 3042 3040 3039 3038 3036 3035 3034 3032 3031 3029 3028 3026 3025 3023 3022 3021 3019 3018 3017 3016 3015 3014 3013 3012 3011 3010
3131 3129 3127 3125 3124 3122 3120 3118 3117 3115 3113 3112 3111 3109 3108 3106 3105 3103 3101 3099 3097 3096 3094 3093 3091 3089 3086 3084 3082 3080 3078 3077 3075 3074 3073 3071 3069 3067 3065 3064 3062 3061 3060 3059 3058 3057 3056 3055 3053 3052 3051 3050 3049 3048 3047 3046 3044 3043 3042 3041 3039 3038 3037 3036 3034 3033 3032 3030 3028 3027 3025 3024 3022 3020 3019 3018 3017 3015 3014 3013 3012 3011 3010 3009 3009
3130 3128 3126 3124 3123 3121 3120 3118 3116 3114 3113 3111 3110 3108 3106 3105 3103 3101 3099 3097 3096 3094 3092 3091 3089 3087 3085 3082 3081 3079 3077 3075 3074 3073 3071 3070 3068 3066 3064 3062 3061 3059 3058 3057 3056 3055 3055 3053 3052 3051 3050 3049 3048 3047 3046 3045 3044 3042 3041 3040 3038 3037 3036 3035 3033 3032 3031 3029 3027 3026 3024 3022 3021 3019 3018 3016 3015 3014 3013 3012 3011 3010 3009 3008 3007
3129 3127 3125 3123 3122 3120 3118 3117 3115 3113 3112 3110 3108 3107 3105 3103 3102 3100 3098 3096 3094 3093 3091 3089 3087 3085 3083 3081 3079 3078 3076 3074 3073 3072 3070 3069 3067 3065 3063 3061 3060 3058 3057 3056 3055 3054 3053 3052 3051 3050 3049 3048 3047 3046 3045 3044 3042 3041 3040 3039 3037 3036 3035 3034 3032 3031 3029 3028 3026 3024 3023 3021 3020 3018 3016 3015 3014 3012 3011 3010 3009 3008 3007 3006 3005
3128 3126 3125 3123 3121 3119 3118 3116 3114 3112 3111 3109 3107 3106 3104 3102 3100 3098 3097 3095 3094 3092 3090 3088 3085 3083 3082 3080 3078 3076 3075 3073 3072 3070 3069 3067 3066 3064 3061 3060 3058 3057 3055 3054 3054 3053 3052 3051 3050 3048 3047 3046 3045 3044 3043 3042 3041 3040 3039 3037 3036 3035 3034 3032 3031 3030 3028 3026 3025 3023 3021 3020 3018 3017 3015 3014 3012 3011 3010 3009 3007 3006 3005 3004 3003
3127 3126 3124 3122 3121 3119 3117 3115 3114 3112 3110 3109 3107 3105 3103 3101 3099 3097 3095 3094 3092 3090 3088 3086 3084 3082 3080 3079 3077 3076 3074 3072 3070 3069 3067 3066 3065 3063 3060 3058 3057 3055 3054 3053 3052 3051 3050 3049 3048 3047 3046 3045 3044 3043 3042 3041 3040 3039 3037 3036 3035 3033 3032 3031 3030 3028 3027 3025 3023 3022 3020 3019 3017 3015 3014 3012 3011 3010 3008 3007 3006 3005 3004 3003 3002
3127 3125 3124 3122 3120 3118 3117 3115 3114 3112 3110 3108 3106 3104 3102 3100 3098 3096 3094 3092 3090 3088 3087 3085 3083 3081 3080 3078 3076 3074 3072 3070 3069 3067 3066 3064 3063 3061 3059 3057 3055 3054 3052 3051 3050 3049 3049 3048 3047 3046 3045 3044 3042 3041 3040 3039 3038 3037 3036 3035 3033 3032 3031 3029 3028 3027 3025 3024 3022 3021 3019 3017 3016 3014 3012 3011 3010 3008 3007 3005 3004 3003 3002 3001 3000
3126 3124 3123 3121 3120 3118 3116 3115 3113 3111 3109 3106 3104 3102 3100 3098 3096 3094 3092 3090 3088 3087 3085 3083 3082 3080 3078 3076 3074 3073 3071 3069 3067 3066 3065 3063 3061 3059 3057 3055 3054 3052 3051 3049 3048 3047 3047 3046 3045 3044 3043 3042 3041 3040 3039 3038 3036 3035 3034 3033 3032 3031 3029 3028 3027 3025 3024 3022 3021 3019 3018 3016 3014 3013 3011 3010 3008 3007 3005 3004 3003 3001 3000 2999 2998
3125 3124 3122 3121 3119 3117 3115 3113 3111 3109 3108 3106 3104 3102 3100 3097 3095 3094 3092 3089 3087 3085 3083 3082 3080 3078 3076 3075 3073 3071 3069 3068 3066 3064 3063 3061 3059 3057 3055 3053 3051 3050 3049 3048 3046 3045 3045 3044 3043 3042 3041 3040 3039 3038 3037 3036 3035 3034 3033 3032 3031 3029 3028 3027 3025 3024 3022 3021 3019 3018 3016 3015 3013 3011 3010 3008 3007 3005 3004 3003 3001 3000 2999 2998 2997
3124 3123 3121 3120 3118 3116 3114 3112 3111 3109 3107 3105 3104 3102 3100 3097 3095 3093 3091 3088 3086 3085 3082 3080 3078 3076 3075 3073 3072 3070 3068 3066 3064 3063 3061 3060 3058 3056 3054 3051 3050 3048 3047 3046 3045 3044 3042 3041 3041 3040 3039 3038 3037 3036 3035 3034 3033 3032 3031 3030 3029 3028 3026 3025 3024 3022 3021 3020 3018 3016 3015 3013 3011 3010 3008 3007 3005 3004 3002 3001 3000 2998 2997 2996 2995
3123 3122 3120 3118 3117 3115 3113 3112 3110 3109 3107 3105 3103 3101 3099 3097 3095 3093 3090 3088 3086 3084 3082 3079 3077 3075 3073 3071 3070 3068 3066 3065 3063 3061 3060 3058 3056 3054 3051 3049 3047 3046 3045 3044 3043 3041 3040 3039 3038 3037 3036 3036 3035 3034 3033 3032 3031 3030 3029 3028 3027 3026 3025 3023 3022 3021 3019 3018 3016 3015 3013 3012 3010 3008 3007 3005 3004 3002 3001 3000 2998 2997 2996 2995 2993